COSMOS 2535 DEB, 44632

Orbit data source: Space-Track

COSMOS 2535 DEB, 44632 is space debris in SSO originally from a launch on Wed, 10 Jul 2019 UTC launched from the Plesetsk Missile And Space Complex (PKMTR). Debris objects in space refer to the collection of defunct objects orbiting the Earth. Examples of debris include non-operational satellites, rocket bodies, and fragments generated from explosions, collisions, or faulty payload assembly.

Loading next visibility...
Identifier
44632, 2019-039J
Orbit
SSO
Country
Flag of CISCIS
Related business
Manufacturer
Unknown
Mission
Spacecraft
Bus & Motor
Unknown
Mass
Unknown
Launch date (UTC)
2019-07-10 (7 years ago)
Launch vehicle
Unknown
Launch site
Plesetsk Missile And Space Complex (PKMTR)
Object type
Payload
Rocket body
Debris
Shape & HBR
Unknown shape, 0.1 m
Radar Cross Section
Small (<0.1 m²)

Expand to show TLE details & history
Last TLE update: 2 days ago

TLE from 2 days ago
0 COSMOS 2535 DEB
1 44632U 19039J   26171.39090800  .00007750  00000-0  41345-3 0  9996
2 44632  97.5146 210.7689 0011132  19.4520 340.7135 15.15378844365491
Epoch: 2026-06-20T09:22Z
TLE epoch observation values (Epoch: 2026-06-20T09:22:54.451Z)
Latitude
Longitude
161.43581°
Altitude
515.661 km
Speed
7.61 km/s
True Right ascension
14h 03m 04s
True Declination
0° 00' 00"
Sunlit
Object was in full shadow at epoch
Visualization orbit readout
Latitude
Unknown
Longitude
Unknown
Altitude
Unknown
Speed
Unknown
Apparent Right ascension
Unknown
Apparent Declination
Unknown
Sunlit
N/A
Visualization observer readout
Local Sidereal Time
21:38:02
Azimuth
Unknown
Elevation
Unknown
Doppler factor
Unknown
Orbital elements
Apogee altitude
524.481 km
Perigee altitude
509.13 km
Semi-major axis
6,894.942 km
Eccentricity
0.00111
Inclination
97.5146°
RAAN
210.7689°
Arg. of periapsis
19.452°
True anomaly
340.67131°
Mean anomaly
340.7135°
Eccentric anomaly
340.69241°
Mean motion
3.79094 °/min
Orbital period
94.96 mins
BSTAR
0.00041345
Loading maneuver chart data...
Computing Atmospheric mass density...

Documentation

Showing up to 5 results
|